TimeEDT,TemperatureF,Dew PointF,Humidity,Sea Level PressureIn,VisibilityMPH,Wind Direction,Wind SpeedMPH,Gust SpeedMPH,PrecipitationIn,Events,Conditions,WindDirDegrees,DateUTC
12:51 AM,54.0,41.0,62,30.15,10.0,Calm,Calm,-,N/A,,Clear,0,2013-05-05 04:51:00
1:51 AM,52.0,41.0,66,30.14,10.0,Calm,Calm,-,N/A,,Clear,0,2013-05-05 05:51:00
2:51 AM,50.0,41.0,71,30.14,10.0,Calm,Calm,-,N/A,,Clear,0,2013-05-05 06:51:00
3:51 AM,48.9,41.0,74,30.14,10.0,Calm,Calm,-,N/A,,Clear,0,2013-05-05 07:51:00
4:51 AM,50.0,41.0,71,30.15,10.0,ESE,3.5,-,N/A,,Clear,120,2013-05-05 08:51:00
5:51 AM,48.0,39.9,74,30.15,10.0,Calm,Calm,-,N/A,,Clear,0,2013-05-05 09:51:00
6:51 AM,48.0,39.9,74,30.17,10.0,Calm,Calm,-,N/A,,Clear,0,2013-05-05 10:51:00
7:51 AM,55.9,42.1,60,30.17,10.0,East,4.6,-,N/A,,Clear,100,2013-05-05 11:51:00
8:51 AM,61.0,43.0,52,30.17,10.0,East,5.8,-,N/A,,Clear,100,2013-05-05 12:51:00
9:51 AM,66.0,42.1,42,30.16,10.0,ESE,8.1,-,N/A,,Clear,120,2013-05-05 13:51:00
10:51 AM,68.0,35.1,30,30.14,10.0,ESE,10.4,19.6,N/A,,Clear,110,2013-05-05 14:51:00
11:51 AM,68.0,42.1,39,30.13,10.0,NNE,16.1,-,N/A,,Clear,30,2013-05-05 15:51:00
12:51 PM,64.0,43.0,46,30.12,10.0,NE,15.0,23.0,N/A,,Clear,40,2013-05-05 16:51:00
1:51 PM,64.0,41.0,43,30.10,10.0,NE,18.4,23.0,N/A,,Clear,50,2013-05-05 17:51:00
2:51 PM,66.9,41.0,39,30.09,10.0,NE,18.4,25.3,N/A,,Clear,40,2013-05-05 18:51:00
3:51 PM,69.1,42.1,38,30.07,10.0,NE,9.2,18.4,N/A,,Clear,50,2013-05-05 19:51:00
4:51 PM,71.1,42.1,35,30.04,10.0,NE,16.1,-,N/A,,Clear,50,2013-05-05 20:51:00
5:51 PM,71.6,41.0,33,30.04,10.0,NE,20.7,28.8,N/A,,Clear,50,2013-05-05 21:51:00
6:51 PM,70.0,42.1,36,30.04,10.0,NE,18.4,25.3,N/A,,Clear,50,2013-05-05 22:51:00
7:51 PM,66.9,41.0,39,30.04,10.0,ENE,13.8,-,N/A,,Clear,60,2013-05-05 23:51:00
8:51 PM,64.9,41.0,42,30.05,10.0,East,3.5,-,N/A,,Clear,80,2013-05-06 00:51:00
9:51 PM,57.0,43.0,59,30.06,10.0,Calm,Calm,-,N/A,,Clear,0,2013-05-06 01:51:00
10:51 PM,62.1,23.0,22,30.06,10.0,SSE,10.4,-,N/A,,Clear,150,2013-05-06 02:51:00
11:51 PM,61.0,19.9,21,30.06,10.0,SSE,12.7,-,N/A,,Clear,150,2013-05-06 03:51:00